Regional Weather Roundup
Issued by NWS

Home | Current Version | Previous Version | Text Only | Print | Product List | Glossary Off
Versions: 1 2 3 4 5 6 7 8 9 10 11 12 13 14 15 16 17 18 19 20 21 22 23 24 25 26 27 28 29 30 31 32 33 34 35 36 37 38 39 40 41 42 43 44 45 46 47 48 49 50

000
ASUS43 KBIS 211902
RWRND

NORTH DAKOTA REGIONAL WEATHER ROUNDUP
NATIONAL WEATHER SERVICE BISMARCK ND
100 PM CST SAT JAN 21 2017

NOTE: "FAIR" INDICATES FEW OR NO CLOUDS BELOW 12,000 FEET WITH NO
SIGNIFICANT WEATHER AND/OR OBSTRUCTIONS TO VISIBILITY.


NDZ001>003-009>011-017-212000-
NORTHWEST NORTH DAKOTA

CITY           SKY/WX    TMP DP  RH WIND       PRES   REMARKS
WILLISTON      CLOUDY    31  25  78 W8        29.36S
MINOT          CLOUDY    31  28  89 SW8       29.35S FOG
MINOT AFB      CLOUDY    29  26  90 W7        29.35R
$$

NDZ018>021-031>035-040>046-212000-
SOUTHWEST NORTH DAKOTA

CITY           SKY/WX    TMP DP  RH WIND       PRES   REMARKS
BISMARCK       CLOUDY    30  27  88 SW5       29.38S FOG
DICKINSON      CLOUDY    32  26  78 W12       29.33S
GARRISON         N/A     24  23  96 W7        29.35F WCI  16
HETTINGER ARPT CLOUDY    33  27  78 NW13      29.36F
$$

NDZ004>008-012>016-024-026-027-054-212000-
NORTHEAST NORTH DAKOTA

CITY           SKY/WX    TMP DP  RH WIND       PRES   REMARKS
GRAND FORKS    CLOUDY    37  32  82 CALM      29.41S
GRND FRKS AFB  CLOUDY    35  34  96 SE6       29.41F
DEVILS LAKE    LGT RAIN  33  33 100 SE6       29.38F VSB 1/2
$$

NDZ022-023-025-028>030-036>039-047>053-212000-
SOUTHEAST NORTH DAKOTA

CITY           SKY/WX    TMP DP  RH WIND       PRES   REMARKS
FARGO          CLOUDY    39  35  86 S6        29.40S
JAMESTOWN      FOG       33  33 100 SE6       29.36S VSB 3/4
$$





USA.gov is the U.S. government's official web portal to all federal, state and local government web resources and services.